[[{"header":{"parameterUnit":"m.s-1","parameterCategory":1,"la1":30.2991,"la2":30.254,"lo1":-89.0895,"lo2":-89.0444,"dy":0.0017,"dx":0.0017,"nx":28,"ny":28,"refTime":"2025-01-18T09:00:00:Z","depth":0,"parameterNumber":2,"parameterNumberName":"U-component_of_WINDS"},"data":[0,0,0,0,0,0,0,0,0,0,0,0,0,0,0,0,0,0,0,0,0,0,0,0,0,0,0,0,0,0,0,0,0,0,0,0,0,0,0,0,0,0,0,0,0,0,0,0,0,0,0,0,0,0,0,0,0,0,-0.378,-0.3777,0,-0.3534,-0.3531,-0.3528,-0.3404,-0.3404,-0.3404,-0.3404,-0.3142,-0.3135,-0.3128,0,0,0,0,0,0,0,0,0,0,0,0,0,-0.4132,-0.4126,-0.378,-0.3777,-0.3774,-0.3534,-0.3531,-0.3527,-0.3404,-0.3404,-0.3404,-0.3404,-0.3144,-0.3136,-0.3127,0,0,0,0,0,0,0,0,0,0,0,0,0,-0.3942,-0.4125,-0.3781,-0.3684,-0.3673,-0.3535,-0.353,-0.3526,-0.3404,-0.3404,-0.3404,-0.3404,-0.3147,-0.3137,-0.3126,-0.3062,0,0,-0.3094,-0.309,0,0,0,0,0,0,0,0,-0.3953,-0.3929,-0.3701,-0.369,-0.3678,-0.35,-0.3558,-0.337,-0.3404,-0.3506,-0.3404,-0.3404,-0.326,-0.324,-0.3194,-0.305,-0.3039,-0.3093,-0.3087,-0.3083,-0.308,0,0,0,0,0,0,0,-0.3966,-0.3939,-0.3682,-0.3698,-0.3684,-0.3649,-0.3622,-0.3522,-0.3386,-0.3497,-0.3488,-0.3461,-0.3254,-0.3204,-0.3187,-0.3035,-0.3094,-0.3084,-0.3078,-0.3074,-0.2823,-0.2823,0,0,0,0,0,0,-0.3996,-0.3951,-0.369,-0.3675,-0.3818,-0.3643,-0.3612,-0.3557,-0.3387,-0.3361,-0.3461,-0.3456,-0.3222,-0.3199,-0.3177,-0.3089,-0.3083,-0.3073,-0.3067,-0.2823,-0.2823,-0.2822,0,0,0,0,0,0,-0.4005,-0.3975,-0.37,-0.381,-0.3772,-0.3637,-0.3575,-0.3552,-0.3503,-0.336,-0.3334,-0.3436,-0.3221,-0.3192,-0.3092,-0.3079,-0.3068,-0.3059,-0.2824,-0.2823,-0.2823,-0.2915,0,0,0,0,0,0,-0.4015,-0.3978,-0.3955,-0.3811,-0.3767,-0.3623,-0.3574,-0.3547,-0.3486,-0.3477,-0.333,-0.3305,-0.3219,-0.3108,-0.3082,-0.3064,-0.305,-0.2824,-0.2823,-0.2823,-0.2913,-0.2918,-0.2922,0,0,0,0,0,-0.4028,-0.3989,-0.3955,-0.3924,-0.3737,-0.3622,-0.3597,-0.3502,-0.3486,-0.3459,-0.3367,-0.331,-0.3085,-0.3099,-0.3068,-0.3047,-0.2825,-0.2824,-0.2823,-0.291,-0.2917,-0.2922,0,0,0,0,0,0,-0.4132,-0.3969,-0.3929,-0.3843,-0.3748,-0.3602,-0.3566,-0.3512,-0.3416,-0.3412,-0.3294,-0.3262,-0.3172,-0.3099,-0.3118,-0.2975,-0.2949,-0.2942,-0.3026,-0.3031,-0.3035,-0.3054,-0.3042,0,0,0,0,0,-0.4146,-0.4071,-0.393,-0.3868,-0.3823,-0.3703,-0.3649,-0.3585,-0.348,-0.3438,-0.3338,-0.3236,-0.3142,-0.3082,-0.2988,-0.2902,-0.2866,-0.2871,-0.2876,-0.2881,-0.2876,-0.2822,-0.2822,-0.2819,-0.2819,-0.2819,0,0,-0.4172,-0.4073,-0.4033,-0.3886,-0.3805,-0.3726,-0.367,-0.3588,-0.3527,-0.3424,-0.3325,-0.3248,-0.3125,-0.3032,-0.2985,-0.2968,-0.2869,-0.288,-0.2885,-0.2876,-0.2821,-0.2822,-0.2822,-0.2819,-0.2819,-0.2819,0,0,-0.4179,-0.4099,-0.4037,-0.3957,-0.3836,-0.3757,-0.3742,-0.3604,-0.355,-0.3449,-0.3369,-0.3293,-0.3134,-0.3049,-0.2986,-0.296,-0.2902,-0.2932,-0.2957,-0.2906,-0.2906,-0.2905,-0.2894,-0.2892,-0.2928,-0.2928,-0.2928,0,-0.4226,-0.4108,-0.4011,-0.3935,-0.3871,-0.3778,-0.3712,-0.3638,-0.3491,-0.3447,-0.3431,-0.3229,-0.314,-0.3024,-0.3018,-0.297,-0.2947,-0.2948,-0.2915,-0.2913,-0.2911,-0.2899,-0.2895,-0.2932,-0.2932,-0.2931,-0.2931,0,-0.417,-0.4089,-0.4053,-0.3917,-0.3849,-0.3779,-0.3667,-0.3609,-0.355,-0.3471,-0.3367,-0.3257,-0.3138,-0.3106,-0.3046,-0.2981,-0.2974,-0.2938,-0.2909,-0.2917,-0.2904,-0.2898,-0.2938,-0.2937,-0.2936,-0.2934,0,0,-0.4236,-0.4048,-0.4036,-0.3973,-0.3832,-0.3765,-0.3688,-0.3575,-0.3527,-0.3428,-0.3358,-0.3226,-0.3191,-0.3119,-0.3048,-0.3004,-0.2988,-0.2972,-0.2967,-0.2977,-0.2906,-0.2933,-0.293,-0.2949,-0.2948,-0.2947,-0.2916,0,-0.4222,-0.4085,-0.3995,-0.3892,-0.3814,-0.3723,-0.3656,-0.356,-0.3484,-0.3403,-0.3316,-0.3224,-0.3187,-0.3142,-0.3094,-0.3,-0.2971,-0.3001,-0.288,-0.2877,-0.2913,-0.2923,-0.2952,-0.2928,-0.291,-0.2909,-0.2908,0,-0.4188,-0.4096,-0.3986,-0.3853,-0.3816,-0.3758,-0.3646,-0.3571,-0.3459,-0.3406,-0.3326,-0.3254,-0.3165,-0.3145,-0.3019,-0.3041,-0.2986,-0.2932,-0.2928,-0.2912,-0.2893,-0.2905,-0.2918,-0.2914,-0.2899,-0.29,-0.2901,0,-0.4245,-0.4093,-0.4007,-0.3955,-0.3798,-0.3759,-0.369,-0.3579,-0.3516,-0.3416,-0.3374,-0.3264,-0.3204,-0.3119,-0.3018,-0.3013,-0.2901,-0.2873,-0.2852,-0.2854,-0.2831,-0.2834,-0.2834,-0.2799,-0.2799,-0.2799,-0.2799,0,-0.4239,-0.4175,-0.4031,-0.3978,-0.3902,-0.3797,-0.3723,-0.3647,-0.3548,-0.3475,-0.3389,-0.3322,-0.3194,-0.3109,-0.303,-0.2936,-0.2909,-0.2862,-0.2841,-0.2869,-0.2875,-0.283,-0.2828,-0.2798,-0.2798,-0.2798,-0.2798,0,-0.429,-0.4191,-0.4092,-0.3952,-0.3915,-0.3865,-0.3742,-0.3685,-0.3605,-0.3514,-0.3486,-0.3358,-0.3254,-0.3146,-0.3004,-0.295,-0.2859,-0.2831,-0.2898,-0.2886,-0.2871,-0.2873,-0.284,-0.2829,-0.2805,-0.2805,-0.2805,0,-0.4292,-0.4241,-0.4096,-0.4044,-0.3979,-0.3894,-0.383,-0.3724,-0.366,-0.3528,-0.3486,-0.3377,-0.3284,-0.3121,-0.3013,-0.2904,-0.2871,-0.2867,-0.2854,-0.2883,-0.2869,-0.2873,-0.2866,-0.2872,-0.2872,-0.2873,-0.2874,0,-0.4305,-0.4259,-0.4173,-0.4069,-0.3996,-0.3908,-0.3816,-0.3776,-0.3651,-0.3583,-0.3478,-0.3406,-0.3262,-0.3154,-0.3031,-0.2956,-0.2892,-0.2879,-0.2868,-0.2895,-0.2936,-0.2911,-0.2909,-0.288,-0.2879,-0.2879,-0.2878,-0.2878,-0.433,-0.428,-0.4171,-0.4076,-0.3997,-0.3913,-0.3852,-0.3765,-0.3677,-0.3555,-0.3496,-0.339,-0.3275,-0.3105,-0.3031,-0.2944,-0.2925,-0.291,-0.2906,-0.2903,-0.2909,-0.2951,-0.2921,-0.2921,-0.2921,-0.292,-0.292,0,-0.4337,-0.4263,-0.4178,-0.4054,-0.3979,-0.393,-0.3825,-0.3764,-0.3673,-0.3574,-0.3485,-0.3362,-0.3256,-0.314,-0.3026,-0.2978,-0.2946,-0.2951,-0.2953,-0.2936,-0.2933,-0.2954,-0.2979,-0.2979,-0.2979,-0.2979,-0.2979,-0.2979,-0.4333,-0.4245,-0.4186,-0.4056,-0.398,-0.3879,-0.3823,-0.3743,-0.3664,-0.3532,-0.3445,-0.3371,-0.3263,-0.314,-0.3039,-0.3007,-0.2968,-0.2982,-0.2942,-0.2941,-0.2936,-0.2932,-0.295,-0.2975,-0.2975,-0.2951,-0.2951,-0.2951]},{"header":{"parameterUnit":"m.s-1","parameterCategory":1,"la1":30.2991,"la2":30.254,"lo1":-89.0895,"lo2":-89.0444,"dy":0.0017,"dx":0.0017,"nx":28,"ny":28,"refTime":"2025-01-18T09:00:00:Z","depth":0,"parameterNumber":3,"parameterNumberName":"V-component_of_WINDS"},"data":[0,0,0,0,0,0,0,0,0,0,0,0,0,0,0,0,0,0,0,0,0,0,0,0,0,0,0,0,0,0,0,0,0,0,0,0,0,0,0,0,0,0,0,0,0,0,0,0,0,0,0,0,0,0,0,0,0,0,-0.6289,-0.6287,0,-0.6101,-0.6099,-0.6096,-0.6084,-0.6086,-0.6088,-0.609,-0.5888,-0.5881,-0.5873,0,0,0,0,0,0,0,0,0,0,0,0,0,-0.6627,-0.6621,-0.6289,-0.6287,-0.6284,-0.6101,-0.6098,-0.6096,-0.6084,-0.6086,-0.6089,-0.6091,-0.589,-0.5882,-0.5873,0,0,0,0,0,0,0,0,0,0,0,0,0,-0.6463,-0.6619,-0.6289,-0.6256,-0.6252,-0.6102,-0.6098,-0.6095,-0.6083,-0.6086,-0.609,-0.6092,-0.5893,-0.5883,-0.5872,-0.5739,0,0,-0.5838,-0.5833,0,0,0,0,0,0,0,0,-0.6472,-0.6451,-0.6264,-0.6258,-0.6253,-0.6119,-0.6143,-0.5975,-0.6082,-0.6147,-0.609,-0.6094,-0.5962,-0.5945,-0.5903,-0.5729,-0.5721,-0.5837,-0.583,-0.5825,-0.5822,0,0,0,0,0,0,0,-0.6484,-0.6459,-0.6214,-0.6261,-0.6254,-0.6247,-0.6228,-0.6111,-0.6038,-0.6141,-0.614,-0.6118,-0.5959,-0.5913,-0.5898,-0.5718,-0.5837,-0.5827,-0.582,-0.5816,-0.5419,-0.5415,0,0,0,0,0,0,-0.6503,-0.6468,-0.622,-0.6209,-0.6373,-0.6239,-0.6217,-0.6159,-0.6039,-0.6025,-0.6116,-0.6119,-0.5931,-0.5911,-0.5891,-0.5721,-0.5825,-0.5815,-0.5809,-0.5423,-0.5418,-0.5414,0,0,0,0,0,0,-0.651,-0.6481,-0.6228,-0.6338,-0.6305,-0.6229,-0.6164,-0.6153,-0.6107,-0.602,-0.6006,-0.6083,-0.5932,-0.5906,-0.5776,-0.5714,-0.581,-0.58,-0.5428,-0.5422,-0.5416,-0.5385,0,0,0,0,0,0,-0.652,-0.6484,-0.6435,-0.6337,-0.63,-0.6119,-0.6161,-0.6147,-0.6089,-0.6091,-0.5986,-0.5971,-0.5933,-0.5792,-0.5765,-0.5701,-0.5791,-0.5433,-0.5425,-0.5418,-0.5391,-0.5379,-0.5369,0,0,0,0,0,-0.6532,-0.6433,-0.6433,-0.6403,-0.6238,-0.6116,-0.6094,-0.6055,-0.6085,-0.6032,-0.5976,-0.5974,-0.5727,-0.5779,-0.5748,-0.568,-0.5436,-0.5427,-0.5419,-0.5396,-0.5382,-0.5369,0,0,0,0,0,0,-0.6523,-0.642,-0.6418,-0.6286,-0.621,-0.6114,-0.6048,-0.6041,-0.5953,-0.5958,-0.591,-0.5886,-0.5756,-0.5706,-0.5766,-0.5542,-0.5584,-0.5569,-0.5578,-0.5563,-0.5552,-0.5564,-0.5782,0,0,0,0,0,-0.6507,-0.642,-0.6333,-0.6224,-0.6187,-0.6124,-0.607,-0.6046,-0.5964,-0.5931,-0.5865,-0.5783,-0.5686,-0.5623,-0.553,-0.5387,-0.5359,-0.5324,-0.5313,-0.5304,-0.5288,-0.5202,-0.5183,-0.5385,-0.5385,-0.5385,0,0,-0.647,-0.6403,-0.635,-0.6221,-0.6159,-0.6065,-0.6097,-0.5998,-0.5926,-0.5915,-0.5786,-0.5736,-0.5641,-0.5502,-0.5437,-0.5455,-0.5227,-0.5293,-0.5286,-0.5275,-0.5191,-0.5171,-0.5154,-0.5379,-0.538,-0.5381,0,0,-0.6353,-0.6297,-0.6197,-0.6135,-0.6042,-0.6001,-0.5977,-0.5882,-0.5848,-0.572,-0.5708,-0.5621,-0.5457,-0.5388,-0.5331,-0.5187,-0.5179,-0.5158,-0.5096,-0.5012,-0.4996,-0.4981,-0.4922,-0.4903,-0.5145,-0.5145,-0.5145,0,-0.6317,-0.6179,-0.6145,-0.6045,-0.5985,-0.5975,-0.587,-0.5811,-0.5691,-0.5648,-0.5673,-0.5463,-0.5399,-0.524,-0.5205,-0.5162,-0.5128,-0.5167,-0.5002,-0.4987,-0.4973,-0.4915,-0.4894,-0.5142,-0.5143,-0.5143,-0.5143,0,-0.6136,-0.604,-0.597,-0.5856,-0.579,-0.5688,-0.5634,-0.557,-0.5553,-0.5508,-0.5374,-0.5297,-0.5185,-0.5147,-0.5129,-0.4983,-0.4997,-0.5013,-0.5053,-0.4951,-0.4896,-0.4875,-0.5139,-0.514,-0.514,-0.5141,0,0,-0.6004,-0.5874,-0.5847,-0.5793,-0.569,-0.5613,-0.5509,-0.5402,-0.5344,-0.5264,-0.5169,-0.5031,-0.5044,-0.4979,-0.4953,-0.4881,-0.4762,-0.4904,-0.4901,-0.4873,-0.4588,-0.4572,-0.4547,-0.476,-0.4756,-0.4752,-0.4594,0,-0.587,-0.5686,-0.5652,-0.549,-0.5397,-0.5386,-0.5294,-0.5218,-0.5173,-0.5085,-0.5035,-0.4934,-0.4963,-0.4922,-0.4851,-0.4792,-0.4703,-0.4804,-0.4665,-0.466,-0.4681,-0.452,-0.4503,-0.4356,-0.4573,-0.457,-0.4567,0,-0.5688,-0.5602,-0.5431,-0.5336,-0.5296,-0.5215,-0.5111,-0.5029,-0.4941,-0.4913,-0.4841,-0.4823,-0.4709,-0.4761,-0.4599,-0.4668,-0.461,-0.4572,-0.4566,-0.4544,-0.4602,-0.4487,-0.431,-0.4285,-0.4534,-0.4537,-0.4539,0,-0.5598,-0.5442,-0.5317,-0.5272,-0.5161,-0.5102,-0.5053,-0.4969,-0.4905,-0.4815,-0.4771,-0.4669,-0.461,-0.4529,-0.4481,-0.4524,-0.432,-0.4369,-0.4287,-0.4288,-0.4238,-0.424,-0.4041,-0.4215,-0.4215,-0.4215,-0.4216,0,-0.5447,-0.5341,-0.5275,-0.5197,-0.5076,-0.5038,-0.4918,-0.4868,-0.4793,-0.4702,-0.4689,-0.4603,-0.4549,-0.4454,-0.4417,-0.4284,-0.426,-0.4229,-0.4218,-0.4225,-0.4228,-0.418,-0.4186,-0.4209,-0.4211,-0.4212,-0.4213,0,-0.5324,-0.5277,-0.5139,-0.5046,-0.5019,-0.4933,-0.4851,-0.4772,-0.473,-0.4614,-0.4585,-0.4514,-0.4402,-0.4349,-0.4209,-0.4184,-0.403,-0.4031,-0.4059,-0.4054,-0.3971,-0.3976,-0.3728,-0.3689,-0.3897,-0.3895,-0.3893,0,-0.5226,-0.5144,-0.5042,-0.4981,-0.493,-0.4834,-0.4769,-0.4728,-0.4659,-0.4552,-0.4485,-0.4373,-0.428,-0.41,-0.4034,-0.3925,-0.3918,-0.3839,-0.3901,-0.3908,-0.3906,-0.3908,-0.3896,-0.3824,-0.3822,-0.3821,-0.3819,0,-0.5055,-0.5035,-0.4944,-0.4843,-0.4767,-0.4685,-0.4604,-0.4555,-0.45,-0.4424,-0.431,-0.4238,-0.4096,-0.3981,-0.3868,-0.3813,-0.3803,-0.3802,-0.3775,-0.3776,-0.3793,-0.3774,-0.4019,-0.3805,-0.3807,-0.3808,-0.3809,-0.3809,-0.4935,-0.4859,-0.4775,-0.4672,-0.4608,-0.4532,-0.4452,-0.44,-0.4305,-0.4186,-0.4169,-0.4045,-0.3955,-0.3803,-0.3744,-0.3643,-0.3661,-0.3625,-0.3614,-0.3603,-0.3594,-0.3817,-0.3624,-0.3624,-0.3624,-0.3625,-0.3625,0,-0.4756,-0.4701,-0.4608,-0.4495,-0.4413,-0.4419,-0.4329,-0.4258,-0.415,-0.407,-0.3979,-0.3845,-0.3734,-0.366,-0.3546,-0.3479,-0.3472,-0.345,-0.345,-0.3435,-0.3589,-0.362,-0.3457,-0.3457,-0.3457,-0.3458,-0.3458,-0.3458,-0.4652,-0.4522,-0.4492,-0.4328,-0.4273,-0.4153,-0.4101,-0.4029,-0.3964,-0.3815,-0.3724,-0.3678,-0.3597,-0.3478,-0.3374,-0.3355,-0.3309,-0.3285,-0.3265,-0.3408,-0.3425,-0.3442,-0.3469,-0.3278,-0.3278,-0.3118,-0.3117,-0.3116]}]]